Weather Roundup
Issued by NWS Springfield, MO

Home | Current Version | Previous Version | Graphics & Text | Print | Product List | Glossary On
Versions: 1 2 3 4 5 6 7 8 9 10 11 12 13 14 15 16 17 18 19 20 21 22 23 24 25 26 27 28 29 30 31 32 33 34 35 36 37 38 39 40 41 42 43 44 45 46 47 48 49 50
000
NZUS99 KSGF 141207
HRRSGF

HOURLY WEATHER
NATIONAL WEATHER SERVICE SPRINGFIELD MO
700 AM CDT MON JUL 14 2014

......SGF CWA......

CITY           SKY/WX    TMP DP  RH WIND       PRES   REMARKS
SPRINGFIELD    FOG       71  70  96 CALM      29.98S VSB<1/4
6HR MIN TEMP:  70; 6HR MAX TEMP:  76; 6HR PCP:  0.52;

JOPLIN         PTCLDY    70  69  97 S3        29.99R
6HR MIN TEMP:  68; 6HR MAX TEMP:  79;

WEST PLAINS    CLOUDY    70  67  90 CALM      29.98S
6HR MIN TEMP:  69; 6HR MAX TEMP:  73; 6HR PCP:  0.48;

ROLLA          FOG       70  69  97 W6        29.95R VSB<1/4
6HR MIN TEMP:  68; 6HR MAX TEMP:  70;

OSAGE BEACH    CLOUDY    72  70  94 W5        29.97R VSB<1/4
BRANSON        MOCLDY    73  72  94 CALM      30.00R

......SURROUNDING SGF CWA......

CITY           SKY/WX    TMP DP  RH WIND       PRES   REMARKS
CHANUTE        PTCLDY    69  67  93 CALM      30.00R
PARSONS        MOCLDY    70  67  90 CALM      30.01R
COFFEYVILLE    MOCLDY    72  70  93 W3        29.99R
EMPORIA        PTCLDY    65  64  97 SW3       30.02R
GROVE OK       CLEAR     72  72 100 CALM      29.99R
ROGERS AR      PTCLDY    73  70  90 N3        30.01R
SILOAM SPRINGS PTCLDY    73  64  73 CALM      30.00S
HARRISON AR    MOCLDY    72  69  90 CALM      30.00R
NEAR YELLVILLE PTCLDY    73  70  88 CALM      29.97S

......KANSAS AND MISSOURI......

CITY           SKY/WX    TMP DP  RH WIND       PRES   REMARKS
KANSAS CTY INT PTCLDY    69  66  90 SW7       29.98R
DOWNTOWN KC    CLEAR     73  69  87 CALM      29.97R
COLUMBIA       FOG       70  70 100 SW5       29.95S VSB<1/4
SEDALIA        CLEAR     71  70  96 SW6       29.97R
ST JOSEPH      PTCLDY    70  68  93 CALM      29.99R
ST LOUIS       CLOUDY    75  72  90 W7        29.93R FOG
SPIRIT OF STL  FOG       72  70  94 W5        29.92R VSB 3/4
KIRKSVILLE     SUNNY     70  68  93 W3        29.94R
WICHITA        MOCLDY    70  68  93 SE3       30.03R
TOPEKA         CLEAR     69  67  93 W3        30.00R
OLATHE         CLEAR     69  67  93 W3        29.99R

......TENNESSEE......

CITY           SKY/WX    TMP DP  RH WIND       PRES   REMARKS
MEMPHIS        MOSUNNY   79  72  79 SW7       29.98R
NASHVILLE      CLOUDY    78  72  81 S3        30.00R

......ARKANSAS.......

CITY           SKY/WX    TMP DP  RH WIND       PRES   REMARKS
FAYETTEVILLE   MOCLDY    71  70  96 S3        30.00R
FT SMITH       CLEAR     76  72  87 N5        29.96R
LITTLE ROCK    PTCLDY    77  71  82 SW7       29.96S

......OKLAHOMA.......

CITY           SKY/WX    TMP DP  RH WIND       PRES   REMARKS
TULSA          MOCLDY    75  72  90 NW5       29.98R
PONCA CITY     MOCLDY    74  70  87 CALM      30.00F
MCALESTER      MOCLDY    75  69  81 S5        29.99R
OKLAHOMA CITY  CLOUDY    78  68  71 N12       30.01R

......IOWA............

CITY           SKY/WX    TMP DP  RH WIND       PRES   REMARKS
DES MOINES     PTSUNNY   67  61  81 NW6       29.95R
QUAD CITIES    MOSUNNY   68  64  87 CALM      29.87R

......ILLINOIS........

CITY           SKY/WX    TMP DP  RH WIND       PRES   REMARKS
QUINCY         SUNNY     71  68  90 W6        29.91S
CHICAGO        PTSUNNY   67  57  70 CALM      29.86S



USA.gov is the U.S. government's official web portal to all federal, state and local government web resources and services.